星链-5428 (STARLINK-5428 )

导读

STARLINK-5428是美国SpaceX公司星链(Starlink)星座中的一颗互联网卫星,于2022年12月17日发射升空。该卫星运行在近地轨道,属于星链第二代组网卫星,质量约300千克,负责为全球提供高速低延迟的宽带互联网接入服务,尤其覆盖偏远地区。它是星链星座扩容的组成部分,助力实现全球卫星互联网覆盖目标。

基本信息
目录编号:
54800
目录名称:
STARLINK-5428
国际标识:
2022-175AU
轨道中心:
EARTH
卫星名称:
星链-5428
卫星全名:
星链-5428 (STARLINK-5428 )
卫星状态:
在轨 (已飞行1278 天)
发射日期:
2022-12-17 UTC
国别 :
美国 (US)
星等 :
--
轨道信息
数据来源 国际轨道数据
星历时间: 2026-06-17T10:59:52+0800
6小时前
查看轨道信息
半长轴: 6917.899km
偏心率: 0.0001184
轨道倾角: 53.160°
近地点辐角 84.396°
升交点赤经 307.411°
平近点角 275.716°
近地点: 538.942km
远地点: 540.582km
周期: 95.438分钟
每日圈数: 15.088341
详细信息
固有亮度:
5
最大亮度:
2.5
卫星平台:
Starlink v1.5
覆盖范围:
全球
运营商:
太空探索技术公司
运营商所在国:
美国
制造商(研发单位):
太空探索技术公司
制造商所在国:
美国
使用方式:
暂无
卫星简介
星链(Starlink)计划是由太空探索技术公司(SpaceX)提出的一个巨型低轨卫星互联网星座项目,计划在2019年至2024年间在太空搭建由约1.2万颗卫星组成的“星链”网络,其中1584颗将部署在地球上空550千米处的近地轨道,并从2020年开始工作。该卫星仍在工作。
2D轨道图
3D轨道图
轨道高度分析图
轨道倾角分析图
轨道综合分析图
查看轨道综合分析图